sat.trackr.live / text

‹ back to catalog

STARLINK-34228

NORAD 64171 · 2025-113B

PAYLOAD ACTIVE UNKNOWN

§ Identity

Operator
Country
US
Launch date
2025-05-28
Launch site
AFETR
Launch vehicle
Mass (kg)
RCS (m²)

Purposes: comms

External: N2YO · Heavens-Above · Gunter

§ Orbital elements

Epoch: 2026-09-20T12:57:08.040096Z

Period
94.01 min
Inclination
53.1589°
Eccentricity
0.0001388
Mean motion
15.31708033 rev/d
Perigee alt
469.8 km
Apogee alt
471.7 km
Semi-major
6,848.9 km
B*
3.8458e-4
RAAN
264.2239°
Arg perigee
83.1268°
Mean anomaly
276.9892°
Rev number
7,492

§ Raw data

STARLINK-342281 64171U 25113B   26263.53967639  .00011590  00000+0  38458-3 0  99942 64171  53.1589 264.2239 0001388  83.1268 276.9892 15.31708033 74924

JSON: /api/v1/satellites/64171 · /tle

For live sub-satellite position, see the globe view (requires WebGL).

§ Visibility from observer

Set your observer location to see the next 7 days of passes ≥ 10°. The values pass through the URL so the page stays shareable.

No JS? Fill the form by hand. The geolocation button needs JavaScript.